Location: *
(28.3744°N, 81.5492°W)
Time: 03:14:06
(UTC+00:00)

Cosmos 1818 - Pass Details

Date: 15 June 2025
Orbit: 776 x 795 km, 65.0° (Epoch: 11 July)

Event Time Altitude Azimuth Distance (km) Brightness Sun altitude
Rises 01:52:52 0° 208° (SSW) 3,261 6.6 -17.0°
Reaches altitude 10° 01:55:16 10° 210° (SSW) 2,339 5.9 -17.4°
Maximum altitude 02:00:39 78° 297° (WNW) 810 3.7 -18.3°
Drops below altitude 10° 02:06:05 10° 23° (NNE) 2,360 6.2 -19.2°
Sets 02:08:31 0° 25° (NNE) 3,294 7.0 -19.6°
